Regional Weather Roundup
Issued by NWS Charleston, SC

Home | Current Version | Previous Version | Text Only | Print | Product List | Glossary On
Versions: 1 2 3 4 5 6 7 8 9 10 11 12 13 14 15 16 17 18 19 20 21 22 23 24 25 26 27 28 29 30 31 32 33 34 35 36 37 38 39 40 41 42 43 44 45 46 47 48 49 50
000
ASUS42 KCHS 291325
RWRCHS

REGIONAL WEATHER ROUNDUP
NATIONAL WEATHER SERVICE CHARLESTON SC
900 AM EDT TUE JUL 29 2014

NOTE: "FAIR" INDICATES FEW OR NO CLOUDS BELOW 12,000 FEET WITH NO
SIGNIFICANT WEATHER AND/OR OBSTRUCTIONS TO VISIBILITY.

NOT ALL STATIONS ARE QUALITY CONTROLLED BY THE NATIONAL
WEATHER SERVICE. USE DATA WITH CAUTION...ESPECIALLY
DEWPOINT OBSERVATIONS.

SCZ027-030-031-034>040-042>050-291400-
...SOUTH CAROLINA...

CITY           SKY/WX    TMP DP  RH WIND       PRES   REMARKS
N CHARLESTON   SUNNY     79  62  56 NE15G21   29.91R
WATERFRONT PRK   N/A     77 N/A N/A N20         N/A
FORT JOHNSON   NOT AVBL
MOUNT PLEASANT FAIR      77  64  65 NE9       29.90S
JOHNS ISLAND   SUNNY     79  63  57 NE8       29.91R
PINOPOLIS        N/A     77  64  65 NE12      29.84R
MONCKS CORNER    N/A     79  64  61 NE7       29.92S
SUMMERVILLE    FAIR      77  66  69 N8        29.93R
BEAUFORT MCAS  MOSUNNY   78  65  63 E9        29.91R
BEAUFORT ARPT  FAIR      79  66  65 N13       29.91R
HILTON HEAD IS SUNNY     79  66  65 N9        29.92R
GEORGETOWN     NOT AVBL
WALTERBORO     SUNNY     79  59  50 NE9       29.93R
ORANGEBURG     SUNNY     76  59  55 NE10      29.94S
BARNWELL       FAIR      77  61  57 NE9       29.95S
AIKEN          PTSUNNY   75  63  64 NE10      29.99S
MANNING        FAIR      77  64  65 NE7       29.93S
KINGSTREE      NOT AVBL
COLUMBIA       MOSUNNY   76  58  53 N8        29.95S
SUMTER         MOSUNNY   75  59  57 NE13      29.93S
FLORENCE       MOSUNNY   75  60  59 NE9       29.94R
MYRTLE BEACH   MOSUNNY   75  63  64 N14       29.91R
N MYRTLE BEACH MOSUNNY   75  63  66 N10       29.91R

$$

GAZ063-065-086>088-099>101-113>116-118-119-134-136>141-150-291400-
...GEORGIA...

CITY           SKY/WX    TMP DP  RH WIND       PRES   REMARKS
SAVANNAH ARPT  MOSUNNY   79  63  57 N7        29.91S
HUNTER AAF     SUNNY     79  65  62 N8        29.89S
FORT STEWART   SUNNY     77  65  65 N5        29.91R
STATESBORO     NOT AVBL
SYLVANIA       SUNNY     76  67  73 NE7       29.94R
CLAXTON        FAIR      79  66  65 NE8       29.93R
THOMSON        SUNNY     75  69  82 N3        30.01R
AUGUSTA-BUSH   SUNNY     74  61  63 N8        29.94S
AUGUSTA-DANIEL SUNNY     77  59  53 NE8       29.96S
SWAINSBORO     FAIR      79  68  69 NE6       29.96R
VIDALIA          N/A     77  64  65 N5        29.95R
ALMA           NOT AVBL
WAYCROSS       SUNNY     83  70  64 N5        29.94R
JESUP          FAIR      82  68  61 NE6       29.93R
BRUNSWICK      SUNNY     81  64  57 N6        29.93R
SAINT SIMONS   SUNNY     81  67  62 N7        29.91R

$$

SCZ027-028-034-036>038-045-046-048>050-GAZ119-141-291400-
...LAKE AND SUPPLEMENTAL COASTAL OBSERVATIONS...

STATION/POSITION TIME  TEMP    WIND        PRES    WAVE   SWELL
                       AIR SEA DIR/SP/G            HT/PER HT/PER/DIR
                 (UTC) (F)     (DEG/KT/KT) (MB)    (FT/S) (FT/S/D)
UPR LAKE MARION  NOT AVBL
WINYAH BAY       1300   75      20/  8     1012.0S
LAKE MURRAY      1300   74      30/  2/  4 1013.9S
ACE BASIN NERRS  1300   77      20/  3     1013.0R
FORT PULASKI     1300   77      10/  9/ 11 1012.8S
SAPELO ISLAND    1300   80     360/  9     1013.0S

$$

ANZ835-935-AMZ111-154-330-350-352-354-374-450-454-472-291400-
...C-MAN AND BUOY OBSERVATIONS...

STATION/POSITION TIME  TEMP    WIND        PRES    WAVE   SWELL
                       AIR SEA DIR/SP/G            HT/PER HT/PER/DIR
                 (UTC) (F)     (DEG/KT/KT) (MB)    (FT/S) (FT/S/D)
FOLLY BEACH CMAN 1300   77      20/ 11/ 14 1012.8R
BUOY 41004       1300   81 83   30/ 14/ 16 1010.4R   4/ 6   2/ 8
BUOY 41008       1300   81 85  360/ 12/ 14 1012.2R   2/ 3   2/130/ 8
5E ST. MARYS GA  1300      85                N/A     2/ 3
FRYING PAN BUOY  NOT AVBL
BUOY 41025       1300          VRB 12/ 14  1011.2R   3/ 7   2/170/ 7
CAPE LOOKOUT NC  1300   77     360/ 11/ 14 1011.4F
BUOY 41002       1157   75 81  290/  4/  6 1015.4    6/ 7   5/240/ 7
BUOY 41010       1300   84 84  260/ 16/ 19 1013.7S   4/ 5   2/110/ 8
BUOY 41012       NOT AVBL
ST AUGUSTINE FL  1300   81     290/  5/  7 1014.0R
CAPERS NEARSHORE NOT AVBL
FRIPP NEARSHORE  NOT AVBL


$$


USA.gov is the U.S. government's official web portal to all federal, state and local government web resources and services.